Retour au catalogue

KUIPER-00016

ActifCommunicationsLEO
NORAD 63732·PAYLOAD·🇺🇸 United States

Lancé Apr 28, 2025 depuis Cape Canaveral Space Force Station

Loading…

Prochains Passages (prochaines 24 heures)

TLE

FraisSource: CelesTrak SupGP

Époque: Sep 14, 2026, 19:23 UTC

1 63732C 25088J   26257.80774306  .00005544  00000+0  72584-3 0  2574
2 63732  51.9011 354.2913 0000377 101.7572 144.6773 14.79915958    18

Suivez KUIPER-00016 en temps réel avec AllMySat

Download on the App Store